Location: *
(51.4660°N, 0.3360°W)
Time: 18:44:54
(UTC+00:00)

Cosmos 1452 Rocket - Pass Details

Date: 19 September 2019
Orbit: 767 x 775 km, 74.1° (Epoch: 22 October)

Event Time Altitude Azimuth Distance (km) Brightness Sun altitude
Exits shadow 20:15:45 34° 84° (E) 1,254 4.2 -19.9°
Drops below altitude 10° 20:19:44 10° 39° (NE) 2,319 5.9 -20.4°
Sets 20:22:16 0° 31° (NNE) 3,250 6.8 -20.8°
